Zurück zum Katalog

ATLAS CENTAUR R/B

AktivGTO
NORAD 7902·ROCKET BODY·🇺🇸 United States

Gestartet May 22, 1975 von Cape Canaveral Space Force Station

Loading…

TLE

AlterndSource: Space-Track

Epoche: Sep 14, 2026, 00:49 UTC

1 07902U 75042B   26257.03432836 -.00000073  00000-0  12375-2 0  9998
2 07902  25.5188 224.4942 7180757 343.9891   1.6503  2.21161337282977

Verfolge ATLAS CENTAUR R/B in Echtzeit mit AllMySat

Download on the App Store